(461061) = 2012 KT = 2014 YE13

Discovered at Mount Lemmon on 2009-10-01 by Mt. Lemmon Survey.

Orbit

Orbit type: Main Belt

Note: WebGL enabled browser required.

epoch2024-03-31.0
epoch JD2460400.5
perihelion date2022-04-06.26245
perihelion JD2459675.76245
argument of perihelion (°)238.44504
ascending node (°)117.72676
inclination (°)8.70453
eccentricity0.0940279
perihelion distance (AU)2.3882675
Tisserand w.r.t. Jupiter3.4
ΔV w.r.t. Earth (km/sec)10.0
semimajor axis (AU)2.6361380
mean anomaly (°)166.89080
mean daily motion (°/day)0.23027760
aphelion distance (AU)2.884
period (years)4.28
P-vector [x]0.98908072
P-vector [y]-0.01414737
P-vector [z]-0.14669417
Q-vector [x]0.06142958
Q-vector [y]0.94436516
Q-vector [z]0.32311121
absolute magnitude16.66
phase slope0.15
uncertainty0
referenceMPEC 2024-F28
observations used233
oppositions12
arc length (days)6621
first opposition used2006
last opposition used2024
residual rms (arc-secs)0.65
perturbers coarse indicatorM-v
perturbers precise indicator003Ek
first observation date used2006-01-31.0
last observation date used2024-03-18.0
computer nameMPCLINUX
JD of orbit computation2457430.541834
perihelion JD uncertainty (days)1.7965E-04
argument of perihelion uncertainty (°)4.7751E-05
ascending node uncertainty (°)3.1913E-05
inclination uncertainty (°)6.7562E-06
eccentricity uncertainty 5.9092E-08
perihelion distance uncertainty (AU)1.5864E-07
Minimum Orbit Intersection Distances (in AU)
for orbit epoch: 2460400.5, reference: E2024-GF4
Mercury2.00672
Venus1.66382
Earth1.39558
Mars1.01694
Jupiter2.4965
Saturn6.34346
Uranus15.5769
Neptune27.3582

Observations

236 total observations over interval: 2006 01 31.15192 – 2024 03 18.170091
These data are available for download (format description).

Date (UT) J2000 RA J2000 Dec Magn Location Ref
2006 01 31.15192 04 25 32.08 +15 47 32.9 20.8 V G96 – Mt. Lemmon Survey MPS 585726
2006 01 31.15921 04 25 32.16 +15 47 35.4 20.8 V G96 – Mt. Lemmon Survey MPS 585726
2006 01 31.16652 04 25 32.26 +15 47 37.3 20.9 V G96 – Mt. Lemmon Survey MPS 585726
2006 01 31.17381 04 25 32.37 +15 47 39.5 20.6 V G96 – Mt. Lemmon Survey MPS 585726
2009 10 01.34457 03 02 58.63 +03 02 44.5 20.2 V G96 – Mt. Lemmon Survey MPS 585726
2009 10 01.34911 03 02 58.52 +03 02 43.4 20.1 V G96 – Mt. Lemmon Survey MPS 585726
2009 10 01.35365 03 02 58.38 +03 02 42.0 20.1 V G96 – Mt. Lemmon Survey MPS 585726
2009 10 01.35828 03 02 58.27 +03 02 40.3 20.1 V G96 – Mt. Lemmon Survey MPS 585726
2009 10 16.38462 02 54 30.16 +01 43 28.6 20.4 V 703 – Catalina Sky Survey MPS 585726
2009 10 16.39081 02 54 29.95 +01 43 27.0 20.1 V 703 – Catalina Sky Survey MPS 585726
2009 10 16.39692 02 54 29.66 +01 43 24.2 20.2 V 703 – Catalina Sky Survey MPS 585726
2009 10 16.40301 02 54 29.44 +01 43 23.2 20.1 V 703 – Catalina Sky Survey MPS 585726
2011 01 30.54073 10 10 39.604 +17 04 52.02 21.0 w F51 – Pan-STARRS 1, Haleakala MPS 585726
2011 01 30.55593 10 10 38.899 +17 04 58.81 21.0 w F51 – Pan-STARRS 1, Haleakala MPS 585726
2011 01 30.57329 10 10 38.084 +17 05 06.61 21.1 w F51 – Pan-STARRS 1, Haleakala MPS 585726
2011 01 30.58840 10 10 37.392 +17 05 13.39 21.2 w F51 – Pan-STARRS 1, Haleakala MPS 585726
2011 03 03.24840 09 43 53.29 +20 42 37.9 20.8 V G96 – Mt. Lemmon Survey MPS 585726
2011 03 03.25370 09 43 53.00 +20 42 39.4 20.9 V G96 – Mt. Lemmon Survey MPS 585726
2011 03 03.29411 09 43 51.09 +20 42 52.0 21.2 V G96 – Mt. Lemmon Survey MPS 585726
2011 03 03.30189 09 43 50.70 +20 42 54.1 21.1 V G96 – Mt. Lemmon Survey MPS 585726
2012 05 01.38240 15 57 09.19 -07 55 42.9 20.6 V 691 – Steward Observatory, Kitt Peak-Spacewatch MPS 585726
2012 05 01.40012 15 57 08.35 -07 55 40.3 21.0 V 691 – Steward Observatory, Kitt Peak-Spacewatch MPS 585726
2012 05 01.41782 15 57 07.50 -07 55 37.8 21.2 V 691 – Steward Observatory, Kitt Peak-Spacewatch MPS 585726
2012 05 16.37738 15 44 23.64 -07 17 29.1 20.2 V G96 – Mt. Lemmon Survey MPS 424102
2012 05 16.38098 15 44 23.46 -07 17 28.7 20.1 V G96 – Mt. Lemmon Survey MPS 424102
2012 05 16.38456 15 44 23.24 -07 17 28.1 20.3 V G96 – Mt. Lemmon Survey MPS 424102
2012 05 16.38818 15 44 23.02 -07 17 28.2 20.1 V G96 – Mt. Lemmon Survey MPS 424102
2012 05 17.35950 15 43 30.10 -07 15 39.4 20.0 V G96 – Mt. Lemmon Survey MPS 424102
2012 05 17.36466 15 43 29.82 -07 15 38.8 20.0 V G96 – Mt. Lemmon Survey MPS 424102
2012 05 17.36991 15 43 29.53 -07 15 38.4 20.0 V G96 – Mt. Lemmon Survey MPS 424102
2012 05 17.37516 15 43 29.24 -07 15 37.6 20.0 V G96 – Mt. Lemmon Survey MPS 424102
2013 09 12.07995 00 22 35.96 -11 19 31.3 19.5 V J75 – OAM Observatory, La Sagra MPS 585726
2013 09 12.08815 00 22 35.59 -11 19 34.8 19.3 V J75 – OAM Observatory, La Sagra MPS 585726
2013 09 12.09632 00 22 35.20 -11 19 38.9 19.6 V J75 – OAM Observatory, La Sagra MPS 585726
2013 09 12.29220 00 22 27.15 -11 21 16.7 19.3 V 703 – Catalina Sky Survey MPS 585726
2013 09 12.29895 00 22 26.85 -11 21 19.9 19.4 V 703 – Catalina Sky Survey MPS 585726
2013 09 12.30565 00 22 26.53 -11 21 21.6 20.2 V 703 – Catalina Sky Survey MPS 585726
2013 09 12.31237 00 22 26.29 -11 21 23.8 20.3 V 703 – Catalina Sky Survey MPS 585726
2013 09 24.30245 00 13 15.89 -12 53 24.8 20.5 V 703 – Catalina Sky Survey MPS 585726
2013 09 24.30925 00 13 15.55 -12 53 26.9 20.3 V 703 – Catalina Sky Survey MPS 585726
2013 09 24.31603 00 13 15.09 -12 53 29.2 19.8 V 703 – Catalina Sky Survey MPS 585726
2013 09 24.32286 00 13 14.87 -12 53 32.6 19.5 V 703 – Catalina Sky Survey MPS 585726
2014 12 20.12069 08 30 40.84 +17 47 59.2 20.6 R J04 – ESA Optical Ground Station, Tenerife MPS 559117
2014 12 20.13238 08 30 40.47 +17 48 02.8 20.7 R J04 – ESA Optical Ground Station, Tenerife MPS 559117
2014 12 21.37394 08 30 03.17 +17 53 29.6 21.2 V G96 – Mt. Lemmon Survey MPS 585726
2014 12 21.38363 08 30 02.84 +17 53 32.8 20.7 V G96 – Mt. Lemmon Survey MPS 585726
2014 12 21.38991 08 30 02.64 +17 53 34.6 20.5 V G96 – Mt. Lemmon Survey MPS 585726
2014 12 21.39620 08 30 02.43 +17 53 36.5 20.4 V G96 – Mt. Lemmon Survey MPS 585726
2014 12 21.58987 08 29 56.257 +17 54 29.54 20.8 w F51 – Pan-STARRS 1, Haleakala MPS 559117
2014 12 21.60342 08 29 55.807 +17 54 33.19 20.8 w F51 – Pan-STARRS 1, Haleakala MPS 559117
2014 12 21.61714 08 29 55.345 +17 54 36.81 20.9 w F51 – Pan-STARRS 1, Haleakala MPS 559117
2014 12 21.63091 08 29 54.891 +17 54 40.59 21.1 w F51 – Pan-STARRS 1, Haleakala MPS 559117
2014 12 23.35190 08 28 58.76 +18 02 36.1 20.6 V G96 – Mt. Lemmon Survey MPS 559117
2014 12 23.35796 08 28 58.56 +18 02 37.6 21.1 V G96 – Mt. Lemmon Survey MPS 559117
2014 12 23.36444 08 28 58.28 +18 02 39.4 20.2 V G96 – Mt. Lemmon Survey MPS 559117
2014 12 23.37069 08 28 58.06 +18 02 41.5 20.1 V G96 – Mt. Lemmon Survey MPS 559117
2015 01 16.52597 08 09 29.290 +20 17 57.76 20.2 w F51 – Pan-STARRS 1, Haleakala MPS 585726
2015 01 16.53822 08 09 28.560 +20 18 02.09 20.2 w F51 – Pan-STARRS 1, Haleakala MPS 585726
2015 01 16.56277 08 09 27.103 +20 18 10.83 20.3 w F51 – Pan-STARRS 1, Haleakala MPS 585726
2015 02 20.19402 07 41 08.80 +23 10 20.7 20.8 V G96 – Mt. Lemmon Survey MPS 583394
2015 02 20.19864 07 41 08.64 +23 10 21.8 20.8 V G96 – Mt. Lemmon Survey MPS 583394
2015 02 20.20327 07 41 08.51 +23 10 22.4 20.8 V G96 – Mt. Lemmon Survey MPS 583394
2015 02 22.24417 07 40 12.350 +23 17 06.87 20.9 w F51 – Pan-STARRS 1, Haleakala MPS 583394
2015 02 22.25732 07 40 11.979 +23 17 09.45 21.1 w F51 – Pan-STARRS 1, Haleakala MPS 583394
2015 02 22.27064 07 40 11.625 +23 17 12.14 20.9 w F51 – Pan-STARRS 1, Haleakala MPS 583394
2015 02 22.28396 07 40 11.258 +23 17 14.57 21.2 w F51 – Pan-STARRS 1, Haleakala MPS 583394
2016 02 11.57333 14 23 35.019 -03 35 18.98 21.8 w F51 – Pan-STARRS 1, Haleakala MPS 679285
2016 02 11.58568 14 23 35.345 -03 35 17.94 21.6 w F51 – Pan-STARRS 1, Haleakala MPS 679285
2016 02 11.59808 14 23 35.681 -03 35 16.72 21.7 w F51 – Pan-STARRS 1, Haleakala MPS 679285
2016 02 11.61050 14 23 35.997 -03 35 15.52 21.5 w F51 – Pan-STARRS 1, Haleakala MPS 679285
2016 03 06.59614 14 28 23.678 -02 20 37.60 21.2 w F51 – Pan-STARRS 1, Haleakala MPS 692602
2016 03 06.60880 14 28 23.590 -02 20 33.90 21.3 w F51 – Pan-STARRS 1, Haleakala MPS 692602
2016 03 06.63419 14 28 23.442 -02 20 27.11 21.4 w F51 – Pan-STARRS 1, Haleakala MPS 692602
2016 03 17.51374 14 26 01.977 -01 25 56.75 21.0 r F51 – Pan-STARRS 1, Haleakala MPS 695950
2016 03 17.52610 14 26 01.698 -01 25 52.38 20.9 r F51 – Pan-STARRS 1, Haleakala MPS 695950
2016 03 17.53846 14 26 01.432 -01 25 48.72 20.9 r F51 – Pan-STARRS 1, Haleakala MPS 695950
2016 03 17.55084 14 26 01.144 -01 25 44.44 21.0 r F51 – Pan-STARRS 1, Haleakala MPS 695950
2016 03 31.45717 14 19 02.417 -00 05 33.99 20.7 r F51 – Pan-STARRS 1, Haleakala MPS 698687
2016 03 31.46947 14 19 01.924 -00 05 29.70 20.8 r F51 – Pan-STARRS 1, Haleakala MPS 698687
2016 03 31.48177 14 19 01.400 -00 05 25.46 21.0 r F51 – Pan-STARRS 1, Haleakala MPS 698687
2016 03 31.49410 14 19 00.924 -00 05 20.93 20.7 r F51 – Pan-STARRS 1, Haleakala MPS 698687
2016 04 01.47108 14 18 22.704 +00 00 26.36 20.6 r F51 – Pan-STARRS 1, Haleakala MPS 698687
2016 04 01.48287 14 18 22.216 +00 00 30.65 20.6 r F51 – Pan-STARRS 1, Haleakala MPS 698687
2016 04 01.49474 14 18 21.719 +00 00 34.91 20.6 r F51 – Pan-STARRS 1, Haleakala MPS 698687
2016 04 01.50664 14 18 21.225 +00 00 38.90 20.7 r F51 – Pan-STARRS 1, Haleakala MPS 698687
2016 04 04.47614 14 16 18.901 +00 18 10.35 20.6 w F51 – Pan-STARRS 1, Haleakala MPS 701153
2016 04 04.48805 14 16 18.369 +00 18 14.54 20.6 w F51 – Pan-STARRS 1, Haleakala MPS 701153
2016 04 04.51189 14 16 17.307 +00 18 23.01 20.9 w F51 – Pan-STARRS 1, Haleakala MPS 701153
2016 04 15.26551 14 07 54.71 +01 18 38.2 20.8 V G96 – Mt. Lemmon Survey MPS 703721
2016 04 15.27176 14 07 54.39 +01 18 39.8 20.2 V G96 – Mt. Lemmon Survey MPS 703721
2016 04 15.27801 14 07 54.07 +01 18 42.0 20.8 V G96 – Mt. Lemmon Survey MPS 703721
2016 04 15.28428 14 07 53.76 +01 18 43.6 20.3 V G96 – Mt. Lemmon Survey MPS 703721
2016 06 09.27382 13 34 48.572 +02 12 18.92 21.4 w F51 – Pan-STARRS 1, Haleakala MPS 716628
